GSAT0224 (GALILEO 28)

Last updated on Mon Sep 21 2026 00:02:49 GMT+0000 (Coordinated Universal Time)

1 49810U 21116B 26262.25510454 -.00000091 00000+0 00000+0 0 9996 2 49810 57.1231 339.1333 0003390 223.4355 140.7508 1.70476672 29812
UTC large
Height (km)
Speed (km/s)
/
Latitude / Longitude
Inclination (degrees)
Orbital Period (minutes)
Azimuth
Elevation
Range (km)
Doppler Factor

Next 0 passes for location: London (51.5072 / 0.1276)

No passes found over London.
GSAT0224 (GALILEO 28)